Regional Weather Roundup
Issued by NWS Little Rock, AR

Home | Current Version | Previous Version | Text Only | Print | Product List | Glossary Off
Versions: 1 2 3 4 5 6 7 8 9 10 11 12 13 14 15 16 17 18 19 20 21 22 23 24 25 26 27 28 29 30 31

000
ASUS44 KLZK 211605
RWRLZK

WEATHER ROUNDUP FOR ARKANSAS
NATIONAL WEATHER SERVICE LITTLE ROCK AR
1100 AM CDT SAT APR 21 2018

NOTE: "FAIR" INDICATES FEW OR NO CLOUDS BELOW 12,000 FEET WITH NO
SIGNIFICANT WEATHER AND/OR OBSTRUCTIONS TO VISIBILITY.

ARZ001-003-010-029-211700-
NORTHWEST ARKANSAS

CITY           SKY/WX    TMP DP  RH WIND       PRES   REMARKS
FAYETTEVILLE   CLOUDY    63  39  41 SE15      30.13F
FORT SMITH     CLOUDY    62  42  47 E13       30.11F
HARRISON       PTSUNNY   52  36  54 SE9       30.19R
BENTONVILLE    CLOUDY    56  36  47 E7        30.16F
ROGERS         CLOUDY    56  36  47 E8        30.14F
SILOAM SPGS    CLOUDY    58  38  47 E7        30.14F
SPRINGDALE     MOSUNNY   57  37  47 E9G17     30.14F
$$

ARZ004-005-016-211700-
NORTH CENTRAL ARKANSAS

CITY           SKY/WX    TMP DP  RH WIND       PRES   REMARKS
BATESVILLE     CLOUDY    62  40  44 SE8       30.21F
FLIPPIN        CLOUDY    56  35  45 CALM      30.22S
MTN HOME       CLOUDY    58  35  42 VRB6      30.20R
$$

ARZ040-041-211700-
WEST CENTRAL ARKANSAS

CITY           SKY/WX    TMP DP  RH WIND       PRES   REMARKS
MENA           PTSUNNY   68  45  42 SE7       30.10F
MOUNT IDA      CLOUDY    62  46  55 SE9G21    30.10F
$$

ARZ009-017-025-026-028-211700-
NORTHEAST ARKANSAS

CITY           SKY/WX    TMP DP  RH WIND       PRES   REMARKS
CORNING        FAIR      64  39  39 VRB5      30.26F
JONESBORO      FAIR      65  42  43 E6        30.24F
NEWPORT        FAIR      65  41  41 E15       30.22
WALNUT RIDGE   FAIR      64  38  38 E8        30.24F
BLYTHEVILLE    FAIR      67  38  34 SE9       30.26F
$$

ARZ022-023-033-042-044-211700-
CENTRAL ARKANSAS

CITY           SKY/WX    TMP DP  RH WIND       PRES   REMARKS
LITTLE ROCK    CLOUDY    60  45  57 SE8       30.19S
N LITTLE ROCK    N/A     60  46  60 SE8       30.16F
JACKSONVILLE   CLOUDY    62  45  53 SE5       30.19S
CONWAY         SUNNY     61  43  51 SE8       30.18F
SEARCY         FAIR      63  44  50 E12       30.20S
HOT SPRINGS    MOSUNNY   63  46  54 SE9       30.15F
RUSSELLVILLE   CLOUDY    60  40  47 E8G17     30.15F
CLINTON        FAIR      61  39  44 VRB5      30.20S
$$

ARZ036-211700-
EAST ARKANSAS

CITY           SKY/WX    TMP DP  RH WIND       PRES   REMARKS
WEST MEMPHIS   FAIR      69  46  43 SE13      30.22F
$$

ARZ050-053-066-070-073-211700-
SOUTHWEST ARKANSAS

CITY           SKY/WX    TMP DP  RH WIND       PRES   REMARKS
ARKADELPHIA    FAIR      64  48  56 VRB5      30.16F
CAMDEN         FAIR      64  46  52 E7        30.14F
TEXARKANA      MOSUNNY   63  47  55 SE9       30.11F
EL DORADO      FAIR      65  50  58 E8        30.15S
DE QUEEN       MOSUNNY   65  48  54 VRB7      30.08F
$$

ARZ056-057-069-211700-
SOUTHEAST ARKANSAS

CITY           SKY/WX    TMP DP  RH WIND       PRES   REMARKS
PINE BLUFF     PTSUNNY   63  45  51 S9        30.18S
STUTTGART      FAIR      67  44  43 SE15      30.19F
MONTICELLO     FAIR      65  46  50 SE9       30.17S

$$






USA.gov is the U.S. government's official web portal to all federal, state and local government web resources and services.